Location: Aalen
(48.8330°N, 10.1000°E)
Time: 20:53:56
(UTC+02:00)

Transit 2A - Pass Details

Date: 05 August 2021
Orbit: 594 x 964 km, 66.7° (Epoch: 27 September)

Event Time Altitude Azimuth Distance (km) Brightness Sun altitude
Rises 08:23:10 0° 255° (WSW) 2,883 8.4 22.0°
Reaches altitude 10° 08:25:43 10° 269° (W) 2,017 7.7 22.5°
Maximum altitude 08:29:27 25° 324° (NW) 1,356 7.2 23.1°
Drops below altitude 10° 08:33:28 10° 20° (NNE) 2,181 8.7 23.7°
Sets 08:36:20 0° 33° (NNE) 3,174 9.6 24.2°
